Meteo Giornale » Osservazioni meteo Stati Uniti (USA) » Newburgh-Stewart
ore: 16:45 - Osservazioni Meteo Newburgh-Stewart
Lat. 41° 30' N Lon. 74° 6' W Alt. 150 metri s.l.m.
23 °C
Coperto
Temp. 24 Ore
17 °C
24 °C
Nord
0 Km/h
Dew point 19 °C
Umidità 78 %
Visibilità 10 Km
Il sole sorge alle ore 06:21
Il sole tramonta alle ore 19:31
| Data e Ora | Cielo e Fenomeni | T °C | DP °C | Um. % | Pres. hPa | Vis. km | Vento km/h | |
|---|---|---|---|---|---|---|---|---|
| Oggi h: 16:45 | Coperto | 23 | 19 | 78 | 1018 | 10 | N 0 | |
| Oggi h: 15:45 | Molto Nuvoloso | 23 | 19 | 78 | 1019 | 10 | N 0 | |
| Oggi h: 14:45 | Molto Nuvoloso | 23 | 19 | 78 | 1019 | 10 | N 0 | |
| Oggi h: 13:45 | Molto Nuvoloso | 24 | 19 | 73 | 1020 | 10 | N 0 | |
| Oggi h: 12:45 | Molto Nuvoloso | 23 | 19 | 78 | 1020 | 10 | N 7.4 | |
| Oggi h: 11:45 | Nuvoloso | 22 | 19 | 83 | 1020 | 10 | N 7.4 | |
| Oggi h: 10:45 | Nuvoloso | 22 | 19 | 83 | 1020 | 10 | N 7.4 | |
| Oggi h: 09:45 | Molto Nuvoloso | 22 | 19 | 83 | 1020 | 10 | N 5.5 | |
| Oggi h: 08:45 | Molto Nuvoloso | 21 | 18 | 82 | 1020 | 10 | N 5.5 | |
| Oggi h: 07:45 | Molto Nuvoloso | 18 | 18 | 100 | 1020 | 10 | O/NO 9.3 | |
| Oggi h: 06:45 | Molto Nuvoloso | 17 | 17 | 100 | 1020 | 11 | O/NO 9.3 | |
| Oggi h: 05:45 | Coperto | 17 | 17 | 100 | 1019 | 11 | N 0 | |
| Oggi h: 04:45 | Coperto | 19 | 17 | 88 | 1018 | 11 | N 0 | |
| Oggi h: 03:45 | Coperto | 19 | 17 | 88 | 1018 | 11 | N 0 | |
| Oggi h: 02:45 | Coperto | 21 | 19 | 88 | 1019 | 11 | N 0 | |
| Oggi h: 01:45 | Coperto | 21 | 19 | 88 | 1019 | 11 | N 7.4 | |
| Oggi h: 00:45 | Coperto | 21 | 19 | 88 | 1019 | 11 | N 0 | |
| Ieri h: 23:45 | Coperto | 21 | 20 | 94 | 1019 | 11 | O 18.5 | |
| Ieri h: 22:45 | Coperto | 21 | 21 | 100 | 1019 | 11 | N 0 | |
| Ieri h: 21:45 | Coperto | 22 | 21 | 94 | 1018 | 11 | N 0 | |
| Ieri h: 20:45 | Coperto | 22 | 21 | 94 | 1017 | 11 | N 0 | |
| Ieri h: 19:45 | Coperto | 22 | 21 | 94 | 1017 | 11 | N 0 | |
| Ieri h: 18:45 | Coperto | 24 | 21 | 83 | 1017 | 10 | N 0 | |
| Ieri h: 17:45 | Coperto | 24 | 21 | 83 | 1017 | 10 | N 0 | |



